Regional Weather Roundup
Issued by NWS

Home | Current Version | Previous Version | Text Only | Print | Product List | Glossary Off
Versions: 1 2 3 4 5 6 7 8 9 10 11 12 13 14 15 16 17 18 19 20 21 22 23 24 25 26 27 28 29 30 31 32 33 34 35 36 37 38 39 40 41 42 43 44 45 46 47 48 49 50

000
ASUS43 KLMK 221410
RWRKY
KENTUCKY REGIONAL WEATHER ROUNDUP
NATIONAL WEATHER SERVICE LOUISVILLE KY
900 AM EST MON JAN 22 2018

NOTE "FAIR" INDICATES FEW OR NO CLOUDS BELOW 12,000 FEET
WITH NO SIGNIFICANT WEATHER AND/OR OBSTRUCTIONS TO VISIBILITY.

KYZ001>023-026-027-061>063-070>075-221500-
WESTERN AND SOUTH CENTRAL KENTUCKY

CITY           SKY/WX    TMP DP  RH WIND       PRES   REMARKS
PADUCAH        CLOUDY    54  49  83 S17G29    29.76F
HENDERSON      RAIN      52  50  93 S15       29.82F
OWENSBORO      LGT RAIN  50  48  93 S8        29.86F
HOPKINSVILLE   TSTM      54  50  87 SW7       29.89R
BOWLING GREEN  CLOUDY    60  43  53 S17G31    29.86F
GLASGOW        FAIR      58  42  55 S12G21    29.89S
$$

KYZ024-025-028>034-038-045-046-053-221500-
NORTH CENTRAL KENTUCKY

CITY           SKY/WX    TMP DP  RH WIND       PRES   REMARKS
LOUISVILLE/SDF CLOUDY    59  43  55 S17G28    29.84S
LOUISVILLE/LOU FAIR      59  44  57 S13       29.86S
FORT KNOX      PTSUNNY   56  43  61 S17G28    29.86F
$$

KYZ035>037-039>044-047>052-055>060-089>105-221500-
NORTHEAST KENTUCKY

CITY           SKY/WX    TMP DP  RH WIND       PRES   REMARKS
LEXINGTON      FAIR      57  43  59 S15       29.92R
COVINGTON      CLOUDY    55  45  68 S15G25    29.87R
FRANKFORT      FAIR      57  42  57 S15G24    29.88S
$$

KYZ054-064>069-076>088-106>120-221500-
SOUTHEAST KENTUCKY

CITY           SKY/WX    TMP DP  RH WIND       PRES   REMARKS
JACKSON        FAIR      55  42  61 VRB3      29.97F
LONDON         FAIR      56  42  59 S6        29.97F
SOMERSET       FAIR      55  39  54 CALM      29.97S
MIDDLESBORO    FAIR      40  39  99 CALM      30.05F
MONTICELLO     NOT AVBL
$$




USA.gov is the U.S. government's official web portal to all federal, state and local government web resources and services.